When you browse on this site, cookies collect data to enhance your experience and personalize the content and advertising you see.
Visit our Privacy Policy to learn more. By continuing to use the site, you agree to this use of cookies and data.
  • In Hungary
  • List of Countries
  • For 7 days
  • Water Temperature
  • Satellite Maps
  • Weather Map
  • News
  • Weather Widgets
  • user-avatar
    Login

    Hourly Weather Imbituva

    Today, 19 January, Saturday

    Time Temperature Precipitation Wind Pressure Humidity
    00:00 +20°C° 0.5 mm 0 mps 687 mmHg 97%
    01:00 +20°C° 0 mm 0 mps 687 mmHg 97%
    02:00 +20°C° 0 mm 0 mps 687 mmHg 97%
    03:00 +21°C° 0 mm 1 mps 687 mmHg 97%
    04:00 +19°C° 0 mm 0 mps 687 mmHg 98%
    05:00 +19°C° 0 mm 0 mps 686 mmHg 98%
    06:00 +18°C° 0 mm 0 mps 686 mmHg 98%
    07:00 +22°C° 0 mm 1 mps 687 mmHg 90%
    08:00 +24°C° 0 mm 1 mps 688 mmHg 82%
    09:00 +26°C° 0 mm 1 mps 688 mmHg 74%
    10:00 +28°C° 0.1 mm 1 mps 688 mmHg 67%
    11:00 +30°C° 0.1 mm 1 mps 688 mmHg 60%
    12:00 +32°C° 0.1 mm 1 mps 688 mmHg 52%
    13:00 +32°C° 1.2 mm 1 mps 688 mmHg 56%
    14:00 +32°C° 1.2 mm 1 mps 688 mmHg 59%
    15:00 +31°C° 1.2 mm 1 mps 687 mmHg 62%
    16:00 +30°C° 2.6 mm 1 mps 687 mmHg 73%
    17:00 +28°C° 2.6 mm 1 mps 687 mmHg 84%
    18:00 +26°C° 2.6 mm 1 mps 686 mmHg 94%
    19:00 +25°C° 1.5 mm 1 mps 686 mmHg 95%
    20:00 +24°C° 1.5 mm 1 mps 687 mmHg 96%
    21:00 +23°C° 1.5 mm 1 mps 687 mmHg 97%
    22:00 +20°C° 0 mm 0 mps 687 mmHg 97%
    23:00 +20°C° 0 mm 0 mps 687 mmHg 98%

    Tomorrow, 20 January, Sunday

    Time Temperature Precipitation Wind Pressure Humidity
    00:00 +20°C° 0 mm 0 mps 687 mmHg 98%
    01:00 +20°C° 0.4 mm 0 mps 687 mmHg 98%
    02:00 +21°C° 0.4 mm 1 mps 687 mmHg 98%
    03:00 +21°C° 0.4 mm 1 mps 686 mmHg 99%
    04:00 +21°C° 0 mm 1 mps 686 mmHg 99%
    05:00 +21°C° 0 mm 1 mps 687 mmHg 99%
    06:00 +21°C° 0 mm 1 mps 687 mmHg 99%
    07:00 +22°C° 0 mm 1 mps 687 mmHg 94%
    08:00 +24°C° 0 mm 1 mps 688 mmHg 89%
    09:00 +25°C° 0 mm 1 mps 689 mmHg 84%
    10:00 +26°C° 1 mm 1 mps 689 mmHg 86%
    11:00 +26°C° 1 mm 1 mps 688 mmHg 88%
    12:00 +27°C° 1 mm 1 mps 688 mmHg 89%
    13:00 +27°C° 1.4 mm 1 mps 688 mmHg 90%
    14:00 +27°C° 1.4 mm 1 mps 688 mmHg 91%
    15:00 +27°C° 1.4 mm 1 mps 687 mmHg 92%
    16:00 +27°C° 1.1 mm 1 mps 687 mmHg 91%
    17:00 +27°C° 1.1 mm 1 mps 687 mmHg 91%
    18:00 +26°C° 1.1 mm 1 mps 687 mmHg 91%
    19:00 +25°C° 0.9 mm 1 mps 687 mmHg 93%
    20:00 +24°C° 0.9 mm 1 mps 687 mmHg 95%
    21:00 +22°C° 0.9 mm 1 mps 688 mmHg 97%
    22:00 +22°C° 0.2 mm 1 mps 688 mmHg 98%
    23:00 +22°C° 0.2 mm 1 mps 688 mmHg 98%

    Day after tomorrow, 21 January, Monday

    Time Temperature Precipitation Wind Pressure Humidity
    00:00 +21°C° 0.2 mm 1 mps 688 mmHg 98%
    01:00 +21°C° 0 mm 1 mps 687 mmHg 98%
    02:00 +21°C° 0 mm 1 mps 687 mmHg 98%
    03:00 +21°C° 0 mm 1 mps 686 mmHg 99%
    04:00 +20°C° 0 mm 1 mps 687 mmHg 99%
    05:00 +20°C° 0 mm 1 mps 687 mmHg 99%
    06:00 +20°C° 0 mm 1 mps 687 mmHg 99%
    07:00 +22°C° 0 mm 1 mps 688 mmHg 92%
    08:00 +24°C° 0 mm 1 mps 688 mmHg 85%
    09:00 +26°C° 0 mm 2 mps 689 mmHg 78%
    10:00 +28°C° 0 mm 2 mps 689 mmHg 69%
    11:00 +30°C° 0 mm 2 mps 690 mmHg 60%
    12:00 +32°C° 0 mm 2 mps 690 mmHg 51%
    13:00 +32°C° 0.3 mm 2 mps 689 mmHg 54%
    14:00 +31°C° 0.3 mm 2 mps 689 mmHg 58%
    15:00 +31°C° 0.3 mm 2 mps 688 mmHg 61%
    16:00 +30°C° 1.1 mm 2 mps 688 mmHg 69%
    17:00 +28°C° 1.1 mm 2 mps 688 mmHg 77%
    18:00 +27°C° 1.1 mm 2 mps 688 mmHg 85%
    19:00 +26°C° 0.6 mm 1 mps 688 mmHg 89%
    20:00 +24°C° 0.6 mm 1 mps 688 mmHg 93%
    21:00 +21°C° 0.6 mm 0 mps 689 mmHg 97%
    22:00 +21°C° 0 mm 0 mps 689 mmHg 97%
    23:00 +21°C° 0 mm 0 mps 689 mmHg 98%

    22 January, Tuesday

    Time Temperature Precipitation Wind Pressure Humidity
    00:00 +20°C° 0 mm 0 mps 689 mmHg 98%
    01:00 +20°C° 0 mm 0 mps 688 mmHg 98%
    02:00 +20°C° 0 mm 0 mps 688 mmHg 98%
    03:00 +20°C° 0 mm 0 mps 688 mmHg 98%
    04:00 +19°C° 0 mm 0 mps 688 mmHg 98%
    05:00 +19°C° 0 mm 0 mps 688 mmHg 98%
    06:00 +19°C° 0 mm 0 mps 688 mmHg 98%
    07:00 +21°C° 0 mm 0 mps 689 mmHg 90%
    08:00 +23°C° 0 mm 0 mps 690 mmHg 82%
    09:00 +28°C° 0 mm 1 mps 690 mmHg 73%
    10:00 +30°C° 0 mm 1 mps 690 mmHg 64%
    11:00 +32°C° 0 mm 1 mps 690 mmHg 54%
    12:00 +34°C° 0 mm 1 mps 690 mmHg 45%
    13:00 +33°C° 0 mm 1 mps 689 mmHg 48%
    14:00 +32°C° 0 mm 1 mps 689 mmHg 52%
    15:00 +32°C° 0 mm 1 mps 688 mmHg 55%
    16:00 +30°C° 1.6 mm 1 mps 688 mmHg 67%
    17:00 +28°C° 1.6 mm 1 mps 688 mmHg 79%
    18:00 +26°C° 1.6 mm 2 mps 688 mmHg 92%
    19:00 +25°C° 1.3 mm 1 mps 688 mmHg 93%
    20:00 +24°C° 1.3 mm 1 mps 688 mmHg 94%
    21:00 +21°C° 1.3 mm 0 mps 689 mmHg 95%
    22:00 +21°C° 0 mm 0 mps 689 mmHg 96%
    23:00 +21°C° 0 mm 0 mps 689 mmHg 97%

    23 January, Wednesday

    Time Temperature Precipitation Wind Pressure Humidity
    00:00 +20°C° 0 mm 0 mps 689 mmHg 98%
    01:00 +20°C° 0 mm 0 mps 688 mmHg 98%
    02:00 +20°C° 0 mm 0 mps 688 mmHg 98%
    03:00 +20°C° 0 mm 0 mps 688 mmHg 98%
    04:00 +19°C° 0 mm 0 mps 688 mmHg 98%
    05:00 +19°C° 0 mm 0 mps 688 mmHg 98%
    06:00 +19°C° 0 mm 0 mps 688 mmHg 98%
    07:00 +21°C° 0 mm 0 mps 689 mmHg 89%
    08:00 +24°C° 0 mm 0 mps 690 mmHg 80%
    09:00 +28°C° 0 mm 1 mps 690 mmHg 71%
    10:00 +30°C° 0 mm 1 mps 690 mmHg 62%
    11:00 +32°C° 0 mm 1 mps 690 mmHg 52%
    12:00 +35°C° 0 mm 1 mps 690 mmHg 43%
    13:00 +34°C° 0 mm 1 mps 689 mmHg 46%
    14:00 +33°C° 0 mm 1 mps 689 mmHg 49%
    15:00 +31°C° 0 mm 0 mps 688 mmHg 52%
    16:00 +31°C° 0 mm 1 mps 688 mmHg 59%
    17:00 +30°C° 0 mm 1 mps 688 mmHg 65%
    18:00 +28°C° 0 mm 1 mps 688 mmHg 71%
    19:00 +27°C° 3.5 mm 1 mps 688 mmHg 79%
    20:00 +23°C° 3.5 mm 0 mps 688 mmHg 87%
    21:00 +22°C° 3.5 mm 0 mps 688 mmHg 95%
    22:00 +21°C° 1.8 mm 0 mps 688 mmHg 95%
    23:00 +21°C° 1.8 mm 0 mps 688 mmHg 96%

    24 January, Thursday

    Time Temperature Precipitation Wind Pressure Humidity
    00:00 +21°C° 1.8 mm 0 mps 688 mmHg 97%
    01:00 +21°C° 0 mm 0 mps 688 mmHg 97%
    02:00 +20°C° 0 mm 0 mps 687 mmHg 97%
    03:00 +22°C° 0 mm 1 mps 686 mmHg 97%
    04:00 +20°C° 0 mm 0 mps 686 mmHg 97%
    05:00 +20°C° 0 mm 0 mps 687 mmHg 97%
    06:00 +19°C° 0 mm 0 mps 687 mmHg 97%
    07:00 +21°C° 0 mm 0 mps 688 mmHg 89%
    08:00 +24°C° 0 mm 0 mps 688 mmHg 81%
    09:00 +26°C° 0 mm 0 mps 689 mmHg 73%
    10:00 +28°C° 1 mm 0 mps 689 mmHg 65%
    11:00 +30°C° 1 mm 0 mps 689 mmHg 56%
    12:00 +32°C° 1 mm 0 mps 689 mmHg 48%
    13:00 +34°C° 0 mm 1 mps 688 mmHg 51%
    14:00 +33°C° 0 mm 1 mps 688 mmHg 53%
    15:00 +32°C° 0 mm 1 mps 687 mmHg 56%
    16:00 +30°C° 2.9 mm 1 mps 687 mmHg 68%
    17:00 +27°C° 2.9 mm 2 mps 687 mmHg 81%
    18:00 +25°C° 2.9 mm 2 mps 687 mmHg 94%
    19:00 +24°C° 0.6 mm 2 mps 687 mmHg 95%
    20:00 +23°C° 0.6 mm 1 mps 688 mmHg 96%
    21:00 +23°C° 0.6 mm 1 mps 688 mmHg 97%
    22:00 +22°C° 0.2 mm 1 mps 688 mmHg 98%
    23:00 +22°C° 0.2 mm 1 mps 688 mmHg 98%
    Show more